CFG8PU GCTS-EDDL

Flight info

Callsign CFG8PU
Flight time 3h 58m
Altitude FL340
Route VASTO UN858 AKUDA OBOLO PESAS OSLEP OXACA N858 DGO L176 LUSEM LULUT ADABI BOKNO DIBES VIQAQ TSU OQQAL RANUX VALEK LUTAX DIK N853 ARCKY T853 NVO T857 BIKMU
Aircraft A21N/M-SDE3FGHIRWY/LB1

Departure

Time 2026-05-06 09:23
Airport Tenerife Sur Airport (GCTS)

Arrival

Time 2026-05-06 13:21
Airport Düsseldorf Airport (EDDL)
Time Latitude Longitude Altitude Speed Heading
2026-05-06 09:00 28.04730 -16.57628 232 ft 0 kts 338°
2026-05-06 09:14 28.04726 -16.57626 232 ft 2 kts 339°
2026-05-06 09:14 28.04712 -16.57620 232 ft 2 kts 338°
2026-05-06 09:14 28.04698 -16.57613 232 ft 2 kts 338°
2026-05-06 09:15 28.04684 -16.57607 232 ft 2 kts 338°
2026-05-06 09:15 28.04673 -16.57603 232 ft 3 kts 337°
2026-05-06 09:15 28.04659 -16.57588 231 ft 3 kts 291°
2026-05-06 09:15 28.04658 -16.57569 231 ft 1 kts 252°
2026-05-06 09:16 28.04660 -16.57563 231 ft 1 kts 247°
2026-05-06 09:16 28.04662 -16.57558 231 ft 0 kts 247°
2026-05-06 09:18 28.04656 -16.57573 231 ft 6 kts 248°
2026-05-06 09:18 28.04628 -16.57655 231 ft 16 kts 249°
2026-05-06 09:18 28.04531 -16.57679 231 ft 18 kts 170°
2026-05-06 09:18 28.04452 -16.57762 231 ft 16 kts 248°
2026-05-06 09:19 28.04413 -16.57881 230 ft 16 kts 248°
2026-05-06 09:19 28.04368 -16.58009 230 ft 20 kts 249°
2026-05-06 09:19 28.04310 -16.58181 230 ft 26 kts 248°
2026-05-06 09:19 28.04235 -16.58391 230 ft 31 kts 248°
2026-05-06 09:20 28.04164 -16.58623 229 ft 27 kts 248°
2026-05-06 09:20 28.04096 -16.58812 229 ft 25 kts 248°
2026-05-06 09:20 28.04039 -16.58875 229 ft 9 kts 188°
2026-05-06 09:20 28.04004 -16.58865 229 ft 5 kts 143°
2026-05-06 09:21 28.03994 -16.58852 229 ft 0 kts 125°
2026-05-06 09:21 28.03994 -16.58851 229 ft 1 kts 125°
2026-05-06 09:21 28.03977 -16.58817 229 ft 9 kts 117°
2026-05-06 09:21 28.03941 -16.58721 229 ft 14 kts 95°
2026-05-06 09:22 28.03944 -16.58699 229 ft 0 kts 72°
2026-05-06 09:22 28.03949 -16.58681 229 ft 15 kts 71°
2026-05-06 09:23 28.04080 -16.58300 230 ft 86 kts 68°
2026-05-06 09:23 28.04373 -16.57454 232 ft 144 kts 67°
2026-05-06 09:23 28.04804 -16.56234 342 ft 181 kts 68°
2026-05-06 09:23 28.05286 -16.54938 945 ft 179 kts 65°
2026-05-06 09:24 28.05763 -16.53637 1527 ft 183 kts 67°
2026-05-06 09:24 28.06225 -16.52298 2149 ft 186 kts 66°
2026-05-06 09:24 28.06712 -16.50926 2708 ft 187 kts 65°
2026-05-06 09:24 28.07205 -16.49555 3130 ft 195 kts 65°
2026-05-06 09:25 28.07706 -16.48105 3577 ft 202 kts 67°
2026-05-06 09:25 28.08193 -16.46606 4060 ft 207 kts 68°
2026-05-06 09:25 28.08662 -16.45067 4564 ft 210 kts 69°
2026-05-06 09:25 28.08972 -16.43430 4979 ft 220 kts 85°
2026-05-06 09:26 28.08819 -16.41686 5389 ft 229 kts 98°
2026-05-06 09:26 28.08733 -16.39845 5629 ft 245 kts 83°
2026-05-06 09:26 28.08947 -16.37867 5952 ft 260 kts 80°
2026-05-06 09:26 28.09203 -16.35775 6315 ft 275 kts 81°
2026-05-06 09:27 28.09430 -16.33630 6888 ft 280 kts 82°
2026-05-06 09:27 28.09632 -16.31429 7507 ft 283 kts 83°
2026-05-06 09:27 28.09814 -16.29217 8082 ft 288 kts 84°
2026-05-06 09:27 28.09990 -16.26935 8642 ft 293 kts 84°
2026-05-06 09:28 28.10161 -16.24636 9207 ft 297 kts 84°
2026-05-06 09:28 28.10332 -16.22299 9771 ft 301 kts 84°
2026-05-06 09:28 28.10502 -16.19935 10300 ft 305 kts 85°
2026-05-06 09:28 28.10677 -16.17495 10595 ft 319 kts 84°
2026-05-06 09:29 28.10860 -16.14946 10852 ft 333 kts 85°
2026-05-06 09:29 28.11049 -16.12287 11095 ft 346 kts 85°
2026-05-06 09:29 28.11247 -16.09523 11339 ft 360 kts 85°
2026-05-06 09:29 28.11451 -16.06655 11576 ft 372 kts 85°
2026-05-06 09:30 28.11627 -16.03656 11802 ft 385 kts 87°
2026-05-06 09:30 28.11637 -16.00578 12012 ft 397 kts 91°
2026-05-06 09:30 28.11475 -15.97423 12219 ft 409 kts 94°
2026-05-06 09:30 28.11257 -15.94175 12420 ft 419 kts 94°
2026-05-06 09:31 28.11027 -15.90866 12754 ft 425 kts 94°
2026-05-06 09:31 28.10797 -15.87525 13228 ft 427 kts 94°
2026-05-06 09:31 28.10568 -15.84180 13676 ft 430 kts 94°
2026-05-06 09:31 28.10339 -15.80805 14076 ft 433 kts 94°
2026-05-06 09:32 28.10107 -15.77398 14466 ft 437 kts 94°
2026-05-06 09:32 28.10075 -15.73956 14800 ft 441 kts 82°
2026-05-06 09:32 28.11036 -15.70664 15130 ft 441 kts 59°
2026-05-06 09:32 28.12977 -15.68019 15524 ft 438 kts 38°
2026-05-06 09:33 28.15449 -15.65989 15922 ft 438 kts 32°
2026-05-06 09:33 28.18056 -15.64020 16229 ft 442 kts 31°
2026-05-06 09:33 28.20651 -15.62015 16576 ft 446 kts 32°
2026-05-06 09:33 28.23198 -15.59967 16917 ft 449 kts 33°
2026-05-06 09:34 28.25727 -15.57873 17228 ft 452 kts 34°
2026-05-06 09:34 28.28255 -15.55739 17561 ft 455 kts 34°
2026-05-06 09:34 28.30804 -15.53559 17883 ft 457 kts 34°
2026-05-06 09:34 28.33347 -15.51372 18191 ft 460 kts 34°
2026-05-06 09:35 28.35880 -15.49182 18505 ft 462 kts 34°
2026-05-06 09:35 28.38452 -15.46953 18800 ft 464 kts 34°
2026-05-06 09:35 28.41020 -15.44724 19104 ft 466 kts 35°
2026-05-06 09:35 28.43580 -15.42500 19410 ft 468 kts 35°
2026-05-06 09:36 28.46223 -15.40203 19701 ft 470 kts 34°
2026-05-06 09:36 28.48825 -15.37940 19980 ft 472 kts 34°
2026-05-06 09:36 28.51408 -15.35691 20273 ft 473 kts 35°
2026-05-06 09:36 28.54023 -15.33412 20553 ft 475 kts 35°
2026-05-06 09:37 28.56765 -15.31021 20804 ft 477 kts 35°
2026-05-06 09:37 28.59520 -15.28617 21053 ft 479 kts 35°
2026-05-06 09:37 28.62275 -15.26212 21328 ft 480 kts 35°
2026-05-06 09:37 28.65069 -15.23772 21576 ft 482 kts 35°
2026-05-06 09:38 28.67886 -15.21307 21798 ft 484 kts 35°
2026-05-06 09:38 28.70684 -15.18859 22049 ft 486 kts 35°
2026-05-06 09:38 28.73443 -15.16442 22296 ft 487 kts 35°
2026-05-06 09:38 28.76208 -15.14019 22511 ft 488 kts 35°
2026-05-06 09:39 28.78965 -15.11601 22828 ft 487 kts 35°
2026-05-06 09:39 28.81679 -15.09218 23167 ft 486 kts 35°
2026-05-06 09:39 28.84333 -15.06890 23471 ft 485 kts 35°
2026-05-06 09:39 28.87026 -15.04524 23738 ft 486 kts 35°
2026-05-06 09:40 28.89699 -15.02173 24008 ft 486 kts 35°
2026-05-06 09:40 28.92373 -14.99821 24304 ft 485 kts 35°
2026-05-06 09:40 28.97712 -14.95118 24841 ft 485 kts 35°
2026-05-06 09:41 29.00380 -14.92766 25133 ft 485 kts 35°
2026-05-06 09:41 29.03048 -14.90413 25415 ft 485 kts 35°
2026-05-06 09:41 29.05688 -14.88083 25705 ft 484 kts 35°
2026-05-06 09:41 29.08371 -14.85713 25945 ft 485 kts 36°
2026-05-06 09:42 29.11018 -14.83373 26175 ft 485 kts 35°
2026-05-06 09:42 29.13702 -14.80998 26422 ft 485 kts 35°
2026-05-06 09:42 29.16351 -14.78652 26671 ft 486 kts 35°
2026-05-06 09:42 29.19015 -14.76291 26901 ft 486 kts 35°
2026-05-06 09:43 29.21709 -14.73904 27135 ft 486 kts 35°
2026-05-06 09:43 29.24379 -14.71536 27420 ft 486 kts 35°
2026-05-06 09:43 29.27047 -14.69166 27695 ft 485 kts 35°
2026-05-06 09:43 29.29708 -14.66803 27916 ft 486 kts 35°
2026-05-06 09:44 29.32395 -14.64417 28132 ft 487 kts 35°
2026-05-06 09:44 29.35053 -14.62055 28378 ft 487 kts 35°
2026-05-06 09:44 29.37737 -14.59666 28666 ft 486 kts 35°
2026-05-06 09:44 29.40382 -14.57310 28936 ft 486 kts 35°
2026-05-06 09:45 29.43049 -14.54931 29188 ft 486 kts 35°
2026-05-06 09:45 29.45729 -14.52542 29425 ft 486 kts 35°
2026-05-06 09:45 29.48372 -14.50183 29676 ft 486 kts 35°
2026-05-06 09:45 29.51039 -14.47801 29899 ft 487 kts 35°
2026-05-06 09:46 29.53724 -14.45402 30145 ft 487 kts 35°
2026-05-06 09:46 29.56391 -14.43016 30400 ft 486 kts 35°
2026-05-06 09:46 29.59052 -14.40634 30643 ft 486 kts 35°
2026-05-06 09:46 29.61719 -14.38246 30872 ft 486 kts 35°
2026-05-06 09:47 29.64366 -14.35875 31116 ft 486 kts 35°
2026-05-06 09:47 29.67042 -14.33476 31399 ft 485 kts 36°
2026-05-06 09:47 29.69696 -14.31094 31631 ft 485 kts 36°
2026-05-06 09:47 29.72333 -14.28725 31801 ft 486 kts 36°
2026-05-06 09:48 29.74994 -14.26334 32020 ft 486 kts 36°
2026-05-06 09:48 29.77649 -14.23947 32242 ft 485 kts 35°
2026-05-06 09:48 29.80307 -14.21554 32426 ft 486 kts 36°
2026-05-06 09:48 29.82967 -14.19159 32586 ft 487 kts 36°
2026-05-06 09:49 29.85635 -14.16754 32735 ft 488 kts 36°
2026-05-06 09:49 29.88309 -14.14344 32875 ft 490 kts 35°
2026-05-06 09:49 29.90989 -14.11925 33019 ft 491 kts 36°
2026-05-06 09:49 29.93677 -14.09501 33216 ft 491 kts 36°
2026-05-06 09:50 29.96356 -14.07079 33429 ft 490 kts 36°
2026-05-06 09:50 29.99039 -14.04653 33560 ft 492 kts 36°
2026-05-06 09:50 30.04442 -13.99763 33785 ft 495 kts 36°
2026-05-06 09:51 30.07146 -13.97309 33967 ft 495 kts 36°
2026-05-06 09:51 30.09851 -13.94857 34008 ft 495 kts 36°
2026-05-06 09:51 30.15250 -13.89952 34014 ft 494 kts 36°
2026-05-06 09:52 30.20657 -13.85037 34017 ft 495 kts 36°
2026-05-06 09:52 30.26067 -13.80108 34030 ft 494 kts 35°
2026-05-06 09:53 30.31449 -13.75201 34027 ft 496 kts 35°
2026-05-06 09:53 30.36863 -13.70254 34032 ft 496 kts 35°
2026-05-06 09:54 30.42267 -13.65307 34037 ft 496 kts 36°
2026-05-06 09:54 30.47663 -13.60357 34040 ft 495 kts 35°
2026-05-06 09:55 30.53150 -13.55571 34036 ft 494 kts 31°
2026-05-06 09:55 30.58800 -13.51084 34038 ft 492 kts 31°
2026-05-06 09:56 30.64441 -13.46619 34049 ft 491 kts 31°
2026-05-06 09:56 30.70059 -13.42145 34038 ft 490 kts 31°
2026-05-06 09:57 30.75670 -13.37662 34034 ft 489 kts 31°
2026-05-06 09:57 30.81270 -13.33179 34036 ft 490 kts 32°
2026-05-06 09:58 30.86901 -13.28662 34038 ft 491 kts 32°
2026-05-06 09:58 30.92509 -13.24163 34045 ft 489 kts 32°
2026-05-06 09:59 30.98098 -13.19736 34044 ft 488 kts 32°
2026-05-06 09:59 31.03704 -13.15294 34041 ft 488 kts 32°
2026-05-06 10:00 31.09306 -13.10839 34039 ft 488 kts 32°
2026-05-06 10:00 31.14909 -13.06368 34041 ft 489 kts 32°
2026-05-06 10:01 31.20511 -13.01893 34043 ft 487 kts 31°
2026-05-06 10:01 31.26115 -12.97412 34041 ft 489 kts 31°
2026-05-06 10:02 31.31711 -12.92931 34038 ft 488 kts 32°
2026-05-06 10:02 31.37319 -12.88432 34041 ft 488 kts 31°
2026-05-06 10:03 31.42880 -12.83964 34039 ft 486 kts 32°
2026-05-06 10:03 31.48448 -12.79485 34038 ft 486 kts 32°
2026-05-06 10:04 31.54016 -12.74997 34034 ft 487 kts 32°
2026-05-06 10:04 31.59589 -12.70500 34042 ft 487 kts 32°
2026-05-06 10:05 31.65147 -12.66006 34043 ft 486 kts 31°
2026-05-06 10:05 31.70699 -12.61513 34040 ft 485 kts 32°
2026-05-06 10:06 31.76241 -12.57018 34036 ft 485 kts 32°
2026-05-06 10:06 31.81785 -12.52517 34038 ft 485 kts 32°
2026-05-06 10:07 31.87339 -12.47995 34036 ft 484 kts 31°
2026-05-06 10:07 31.92874 -12.43483 34037 ft 485 kts 32°
2026-05-06 10:08 31.98413 -12.38968 34040 ft 485 kts 32°
2026-05-06 10:08 32.03941 -12.34488 34033 ft 485 kts 32°
2026-05-06 10:09 32.09509 -12.29962 34039 ft 486 kts 32°
2026-05-06 10:09 32.15045 -12.25448 34042 ft 485 kts 32°
2026-05-06 10:10 32.20610 -12.20903 34040 ft 486 kts 32°
2026-05-06 10:10 32.26183 -12.16344 34039 ft 486 kts 32°
2026-05-06 10:11 32.31714 -12.11812 34041 ft 486 kts 32°
2026-05-06 10:11 32.37287 -12.07239 34045 ft 487 kts 32°
2026-05-06 10:12 32.42841 -12.02672 34040 ft 487 kts 32°
2026-05-06 10:12 32.48370 -11.98119 34043 ft 486 kts 32°
2026-05-06 10:13 32.53933 -11.93534 34043 ft 488 kts 32°
2026-05-06 10:13 32.59494 -11.88944 34043 ft 488 kts 32°
2026-05-06 10:14 32.65063 -11.84343 34041 ft 489 kts 32°
2026-05-06 10:14 32.70640 -11.79726 34040 ft 489 kts 32°
2026-05-06 10:15 32.76205 -11.75109 34044 ft 489 kts 32°
2026-05-06 10:15 32.81772 -11.70484 34042 ft 489 kts 32°
2026-05-06 10:16 32.87337 -11.65851 34039 ft 489 kts 32°
2026-05-06 10:16 32.92902 -11.61211 34030 ft 489 kts 32°
2026-05-06 10:17 32.98462 -11.56567 34031 ft 489 kts 32°
2026-05-06 10:17 33.04026 -11.51914 34036 ft 489 kts 32°
2026-05-06 10:18 33.09586 -11.47252 34030 ft 489 kts 32°
2026-05-06 10:18 33.15155 -11.42571 34033 ft 489 kts 32°
2026-05-06 10:19 33.20690 -11.37915 34034 ft 489 kts 32°
2026-05-06 10:19 33.26239 -11.33226 34029 ft 490 kts 33°
2026-05-06 10:20 33.31786 -11.28521 34026 ft 490 kts 33°
2026-05-06 10:20 33.37354 -11.23786 34030 ft 490 kts 33°
2026-05-06 10:21 33.42886 -11.19075 34029 ft 491 kts 33°
2026-05-06 10:21 33.48448 -11.14333 34026 ft 491 kts 33°
2026-05-06 10:22 33.53982 -11.09601 34031 ft 489 kts 33°
2026-05-06 10:22 33.59514 -11.04868 34030 ft 487 kts 33°
2026-05-06 10:23 33.64999 -11.00167 34021 ft 488 kts 33°
2026-05-06 10:23 33.70523 -10.95426 34017 ft 488 kts 33°
2026-05-06 10:24 33.76030 -10.90691 34015 ft 488 kts 33°
2026-05-06 10:24 33.81533 -10.85951 34014 ft 488 kts 33°
2026-05-06 10:25 33.87024 -10.81215 34014 ft 488 kts 33°
2026-05-06 10:25 33.92556 -10.76435 33999 ft 489 kts 33°
2026-05-06 10:26 33.98072 -10.71660 33995 ft 490 kts 33°
2026-05-06 10:26 34.03593 -10.66873 34012 ft 489 kts 33°
2026-05-06 10:27 34.09103 -10.62086 34016 ft 489 kts 33°
2026-05-06 10:27 34.14599 -10.57307 34018 ft 490 kts 33°
2026-05-06 10:28 34.20102 -10.52512 34022 ft 489 kts 33°
2026-05-06 10:28 34.25636 -10.47685 34021 ft 490 kts 33°
2026-05-06 10:29 34.31144 -10.42868 34019 ft 490 kts 33°
2026-05-06 10:29 34.36643 -10.38051 34026 ft 488 kts 33°
2026-05-06 10:30 34.42124 -10.33238 34020 ft 490 kts 33°
2026-05-06 10:30 34.47651 -10.28374 34021 ft 490 kts 33°
2026-05-06 10:31 34.53133 -10.23542 34021 ft 490 kts 33°
2026-05-06 10:31 34.58654 -10.18670 34023 ft 490 kts 33°
2026-05-06 10:32 34.64169 -10.13809 34021 ft 491 kts 33°
2026-05-06 10:32 34.69689 -10.08977 34021 ft 492 kts 33°
2026-05-06 10:33 34.75261 -10.04085 34019 ft 494 kts 33°
2026-05-06 10:33 34.80882 -9.99135 34016 ft 494 kts 33°
2026-05-06 10:34 34.86539 -9.94139 34015 ft 493 kts 33°
2026-05-06 10:34 34.92129 -9.89193 34014 ft 494 kts 33°
2026-05-06 10:35 34.97585 -9.84358 34013 ft 495 kts 33°
2026-05-06 10:35 35.03155 -9.79412 34015 ft 494 kts 33°
2026-05-06 10:36 35.08831 -9.74362 34015 ft 494 kts 33°
2026-05-06 10:36 35.14381 -9.69419 34017 ft 494 kts 33°
2026-05-06 10:37 35.20009 -9.64399 34018 ft 494 kts 33°
2026-05-06 10:37 35.25731 -9.59282 34019 ft 492 kts 33°
2026-05-06 10:38 35.31255 -9.54338 34018 ft 493 kts 33°
2026-05-06 10:38 35.36728 -9.49427 34022 ft 493 kts 33°
2026-05-06 10:39 35.42369 -9.44358 34022 ft 492 kts 33°
2026-05-06 10:39 35.47931 -9.39349 34021 ft 492 kts 33°
2026-05-06 10:40 35.53577 -9.34257 34021 ft 492 kts 34°
2026-05-06 10:40 35.59268 -9.29116 34017 ft 493 kts 34°
2026-05-06 10:41 35.64940 -9.23981 34005 ft 493 kts 34°
2026-05-06 10:41 35.70562 -9.18881 34004 ft 493 kts 34°
2026-05-06 10:42 35.76149 -9.13804 34004 ft 493 kts 34°
2026-05-06 10:42 35.81745 -9.08708 33997 ft 493 kts 34°
2026-05-06 10:43 35.87351 -9.03588 33997 ft 492 kts 34°
2026-05-06 10:44 35.95583 -8.95765 33992 ft 494 kts 39°
2026-05-06 10:44 36.00581 -8.89619 33993 ft 496 kts 47°
2026-05-06 10:45 36.05135 -8.83078 33991 ft 496 kts 49°
2026-05-06 10:45 36.09654 -8.76518 33993 ft 497 kts 48°
2026-05-06 10:46 36.14143 -8.70029 33996 ft 498 kts 48°
2026-05-06 10:46 36.18692 -8.63466 33999 ft 499 kts 48°
2026-05-06 10:47 36.23213 -8.56932 34000 ft 499 kts 48°
2026-05-06 10:47 36.27707 -8.50425 34002 ft 498 kts 48°
2026-05-06 10:48 36.32183 -8.43930 33997 ft 499 kts 48°
2026-05-06 10:48 36.36626 -8.37472 33996 ft 499 kts 48°
2026-05-06 10:49 36.41035 -8.31051 33991 ft 500 kts 49°
2026-05-06 10:49 36.45364 -8.24727 33991 ft 500 kts 49°
2026-05-06 10:50 36.49675 -8.18412 33986 ft 500 kts 49°
2026-05-06 10:50 36.54055 -8.11996 33983 ft 501 kts 49°
2026-05-06 10:51 36.58401 -8.05641 33980 ft 502 kts 49°
2026-05-06 10:51 36.62835 -7.99127 33976 ft 502 kts 49°
2026-05-06 10:52 36.67311 -7.92533 33966 ft 502 kts 49°
2026-05-06 10:52 36.71871 -7.85797 33957 ft 502 kts 49°
2026-05-06 10:53 36.76348 -7.79172 33959 ft 502 kts 49°
2026-05-06 10:53 36.80821 -7.72536 33956 ft 502 kts 49°
2026-05-06 10:54 36.85296 -7.65885 33957 ft 502 kts 49°
2026-05-06 10:54 36.89771 -7.59221 33955 ft 503 kts 49°
2026-05-06 10:55 36.94240 -7.52547 33950 ft 502 kts 49°
2026-05-06 10:55 36.98697 -7.45874 33952 ft 502 kts 49°
2026-05-06 10:56 37.03170 -7.39166 33944 ft 502 kts 49°
2026-05-06 10:56 37.07634 -7.32528 33949 ft 502 kts 49°
2026-05-06 10:57 37.12126 -7.25859 33944 ft 501 kts 49°
2026-05-06 10:57 37.16736 -7.18985 33946 ft 501 kts 49°
2026-05-06 10:58 37.21264 -7.12246 33946 ft 501 kts 49°
2026-05-06 10:58 37.25734 -7.05567 33946 ft 502 kts 49°
2026-05-06 10:59 37.30206 -6.98863 33940 ft 502 kts 49°
2026-05-06 10:59 37.34680 -6.92143 33943 ft 503 kts 49°
2026-05-06 11:00 37.39154 -6.85404 33940 ft 503 kts 49°
2026-05-06 11:00 37.43618 -6.78668 33939 ft 503 kts 49°
2026-05-06 11:01 37.48075 -6.71928 33937 ft 503 kts 49°
2026-05-06 11:01 37.52527 -6.65182 33941 ft 503 kts 49°
2026-05-06 11:02 37.56943 -6.58476 33941 ft 503 kts 49°
2026-05-06 11:02 37.61396 -6.51702 33944 ft 504 kts 49°
2026-05-06 11:03 37.65845 -6.44919 33944 ft 504 kts 49°
2026-05-06 11:03 37.70308 -6.38099 33945 ft 505 kts 49°
2026-05-06 11:04 37.74762 -6.31277 33947 ft 505 kts 50°
2026-05-06 11:04 37.79212 -6.24445 33948 ft 505 kts 50°
2026-05-06 11:05 37.83658 -6.17603 33950 ft 505 kts 50°
2026-05-06 11:05 37.88102 -6.10745 33954 ft 506 kts 50°
2026-05-06 11:06 37.92714 -6.04063 33947 ft 506 kts 44°
2026-05-06 11:06 37.97901 -5.98127 33948 ft 503 kts 36°
2026-05-06 11:07 38.03608 -5.93060 33945 ft 501 kts 29°
2026-05-06 11:07 38.09523 -5.88369 33941 ft 501 kts 28°
2026-05-06 11:08 38.15416 -5.83678 33937 ft 499 kts 28°
2026-05-06 11:08 38.21304 -5.78951 33939 ft 499 kts 28°
2026-05-06 11:09 38.27146 -5.74239 33942 ft 498 kts 29°
2026-05-06 11:09 38.33000 -5.69505 33943 ft 498 kts 29°
2026-05-06 11:10 38.38827 -5.64782 33945 ft 496 kts 29°
2026-05-06 11:10 38.44654 -5.60050 33945 ft 496 kts 28°
2026-05-06 11:11 38.50456 -5.55325 33950 ft 495 kts 28°
2026-05-06 11:11 38.56243 -5.50605 33948 ft 494 kts 29°
2026-05-06 11:12 38.62032 -5.45891 33947 ft 494 kts 28°
2026-05-06 11:12 38.67845 -5.41211 33943 ft 494 kts 28°
2026-05-06 11:13 38.73644 -5.36527 33943 ft 494 kts 28°
2026-05-06 11:13 38.79459 -5.31812 33942 ft 493 kts 29°
2026-05-06 11:14 38.85257 -5.27095 33941 ft 493 kts 29°
2026-05-06 11:14 38.91027 -5.22391 33941 ft 491 kts 29°
2026-05-06 11:15 38.96774 -5.17695 33942 ft 491 kts 29°
2026-05-06 11:15 39.02517 -5.12995 33942 ft 491 kts 29°
2026-05-06 11:16 39.08264 -5.08263 33944 ft 491 kts 29°
2026-05-06 11:16 39.14018 -5.03507 33956 ft 491 kts 29°
2026-05-06 11:17 39.19733 -4.98769 33958 ft 491 kts 29°
2026-05-06 11:17 39.25467 -4.94006 33957 ft 491 kts 29°
2026-05-06 11:18 39.31195 -4.89241 33959 ft 490 kts 29°
2026-05-06 11:18 39.36909 -4.84476 33963 ft 489 kts 29°
2026-05-06 11:19 39.42609 -4.79710 33963 ft 488 kts 29°
2026-05-06 11:19 39.48313 -4.74936 33964 ft 489 kts 29°
2026-05-06 11:20 39.54008 -4.70159 33966 ft 487 kts 29°
2026-05-06 11:20 39.59677 -4.65392 33966 ft 487 kts 29°
2026-05-06 11:21 39.65358 -4.60607 33965 ft 487 kts 29°
2026-05-06 11:21 39.71051 -4.55803 33966 ft 486 kts 29°
2026-05-06 11:22 39.76703 -4.51019 33962 ft 486 kts 29°
2026-05-06 11:22 39.82373 -4.46212 33962 ft 486 kts 29°
2026-05-06 11:23 39.88028 -4.41404 33963 ft 485 kts 29°
2026-05-06 11:23 39.93689 -4.36584 33956 ft 484 kts 29°
2026-05-06 11:24 39.99499 -4.32245 33957 ft 479 kts 22°
2026-05-06 11:24 40.05514 -4.28544 33956 ft 478 kts 21°
2026-05-06 11:25 40.11587 -4.24879 33953 ft 479 kts 21°
2026-05-06 11:25 40.17646 -4.21194 33957 ft 479 kts 21°
2026-05-06 11:26 40.23682 -4.17503 33960 ft 479 kts 21°
2026-05-06 11:26 40.29719 -4.13800 33963 ft 478 kts 21°
2026-05-06 11:27 40.35741 -4.10096 33976 ft 477 kts 21°
2026-05-06 11:27 40.41750 -4.06394 33982 ft 477 kts 21°
2026-05-06 11:28 40.47777 -4.02672 33987 ft 477 kts 21°
2026-05-06 11:28 40.53780 -3.98957 33988 ft 476 kts 21°
2026-05-06 11:29 40.59790 -3.95232 34001 ft 477 kts 21°
2026-05-06 11:29 40.65763 -3.91523 34007 ft 477 kts 21°
2026-05-06 11:30 40.71777 -3.87779 34005 ft 476 kts 21°
2026-05-06 11:30 40.77734 -3.84062 34005 ft 476 kts 21°
2026-05-06 11:31 40.83700 -3.80334 34008 ft 475 kts 21°
2026-05-06 11:31 40.89673 -3.76593 34002 ft 475 kts 21°
2026-05-06 11:32 40.95630 -3.72854 33983 ft 475 kts 21°
2026-05-06 11:32 41.01603 -3.69096 33975 ft 475 kts 21°
2026-05-06 11:33 41.07552 -3.65342 33966 ft 474 kts 21°
2026-05-06 11:33 41.13506 -3.61581 33973 ft 474 kts 21°
2026-05-06 11:34 41.19550 -3.58113 33972 ft 472 kts 18°
2026-05-06 11:34 41.25629 -3.54824 33974 ft 472 kts 18°
2026-05-06 11:35 41.31691 -3.51526 33975 ft 472 kts 18°
2026-05-06 11:35 41.37776 -3.48194 33973 ft 471 kts 18°
2026-05-06 11:36 41.43782 -3.44893 33975 ft 470 kts 18°
2026-05-06 11:36 41.49811 -3.41575 33981 ft 470 kts 18°
2026-05-06 11:37 41.55846 -3.38260 33982 ft 470 kts 18°
2026-05-06 11:37 41.61889 -3.34934 33982 ft 470 kts 18°
2026-05-06 11:38 41.67894 -3.31614 33979 ft 470 kts 18°
2026-05-06 11:38 41.73916 -3.28277 33979 ft 470 kts 18°
2026-05-06 11:39 41.79932 -3.24934 33978 ft 469 kts 18°
2026-05-06 11:39 41.85937 -3.21591 33978 ft 468 kts 18°
2026-05-06 11:40 41.91958 -3.18231 33979 ft 469 kts 18°
2026-05-06 11:40 41.97964 -3.14872 33977 ft 468 kts 18°
2026-05-06 11:41 42.03964 -3.11509 33978 ft 468 kts 18°
2026-05-06 11:41 42.09957 -3.08145 33983 ft 468 kts 18°
2026-05-06 11:42 42.15941 -3.04776 33988 ft 467 kts 18°
2026-05-06 11:42 42.21923 -3.01402 33991 ft 467 kts 18°
2026-05-06 11:43 42.27888 -2.98029 33991 ft 465 kts 18°
2026-05-06 11:43 42.33836 -2.94656 33995 ft 465 kts 18°
2026-05-06 11:44 42.42619 -2.89152 33994 ft 467 kts 25°
2026-05-06 11:44 42.48088 -2.84435 33998 ft 470 kts 32°
2026-05-06 11:45 42.53154 -2.78859 33985 ft 472 kts 38°
2026-05-06 11:45 42.58030 -2.72937 33983 ft 472 kts 38°
2026-05-06 11:46 42.62891 -2.67019 33986 ft 470 kts 38°
2026-05-06 11:46 42.67749 -2.61120 33986 ft 471 kts 38°
2026-05-06 11:47 42.72618 -2.55207 33991 ft 470 kts 38°
2026-05-06 11:47 42.77472 -2.49302 33985 ft 470 kts 38°
2026-05-06 11:48 42.82317 -2.43397 33996 ft 469 kts 38°
2026-05-06 11:48 42.87156 -2.37480 33995 ft 468 kts 38°
2026-05-06 11:49 42.91979 -2.31567 33989 ft 469 kts 39°
2026-05-06 11:49 42.96823 -2.25619 33978 ft 468 kts 39°
2026-05-06 11:50 43.01630 -2.19704 33990 ft 468 kts 39°
2026-05-06 11:50 43.06444 -2.13759 33983 ft 468 kts 39°
2026-05-06 11:51 43.11249 -2.07812 33979 ft 468 kts 39°
2026-05-06 11:51 43.16053 -2.01875 33996 ft 466 kts 39°
2026-05-06 11:52 43.20836 -1.95933 33990 ft 466 kts 39°
2026-05-06 11:52 43.25615 -1.89980 33978 ft 466 kts 39°
2026-05-06 11:53 43.30547 -1.84264 34007 ft 464 kts 34°
2026-05-06 11:53 43.35882 -1.79413 33977 ft 461 kts 28°
2026-05-06 11:54 43.41300 -1.74715 33989 ft 462 kts 29°
2026-05-06 11:54 43.46661 -1.69900 33993 ft 462 kts 30°
2026-05-06 11:55 43.52021 -1.65049 33990 ft 462 kts 30°
2026-05-06 11:55 43.57370 -1.60198 33989 ft 461 kts 30°
2026-05-06 11:56 43.62695 -1.55360 33986 ft 460 kts 30°
2026-05-06 11:56 43.68037 -1.50499 33966 ft 461 kts 30°
2026-05-06 11:57 43.73450 -1.45564 33980 ft 461 kts 30°
2026-05-06 11:57 43.78788 -1.40686 33961 ft 461 kts 30°
2026-05-06 11:58 43.84236 -1.35695 33968 ft 461 kts 30°
2026-05-06 11:58 43.89591 -1.30778 33944 ft 459 kts 31°
2026-05-06 11:59 43.94893 -1.25897 33946 ft 459 kts 31°
2026-05-06 11:59 44.00190 -1.21011 33953 ft 459 kts 31°
2026-05-06 12:00 44.05485 -1.16114 33947 ft 459 kts 31°
2026-05-06 12:00 44.10787 -1.11202 33924 ft 460 kts 31°
2026-05-06 12:01 44.16078 -1.06286 33935 ft 459 kts 31°
2026-05-06 12:01 44.21370 -1.01359 33930 ft 459 kts 31°
2026-05-06 12:02 44.26646 -0.96434 33934 ft 458 kts 31°
2026-05-06 12:02 44.31917 -0.91498 33934 ft 459 kts 31°
2026-05-06 12:03 44.37218 -0.86589 33938 ft 459 kts 29°
2026-05-06 12:03 44.42772 -0.82317 33919 ft 457 kts 23°
2026-05-06 12:04 44.48549 -0.78719 33921 ft 456 kts 20°
2026-05-06 12:04 44.54358 -0.75206 33924 ft 457 kts 21°
2026-05-06 12:05 44.60161 -0.71673 33930 ft 456 kts 21°
2026-05-06 12:05 44.65961 -0.68124 33929 ft 456 kts 21°
2026-05-06 12:06 44.71739 -0.64576 33925 ft 455 kts 21°
2026-05-06 12:06 44.77521 -0.61016 33917 ft 454 kts 21°
2026-05-06 12:07 44.83277 -0.57462 33910 ft 454 kts 21°
2026-05-06 12:07 44.89031 -0.53903 33908 ft 453 kts 21°
2026-05-06 12:08 44.94773 -0.50343 33890 ft 452 kts 21°
2026-05-06 12:08 45.00519 -0.46770 33903 ft 453 kts 21°
2026-05-06 12:09 45.06278 -0.43181 33886 ft 454 kts 21°
2026-05-06 12:09 45.12030 -0.39592 33888 ft 454 kts 21°
2026-05-06 12:10 45.17771 -0.36001 33886 ft 452 kts 21°
2026-05-06 12:10 45.23506 -0.32408 33884 ft 452 kts 22°
2026-05-06 12:11 45.29225 -0.28816 33873 ft 452 kts 22°
2026-05-06 12:11 45.34952 -0.25214 33872 ft 452 kts 22°
2026-05-06 12:12 45.40674 -0.21603 33876 ft 452 kts 22°
2026-05-06 12:12 45.46392 -0.17985 33886 ft 451 kts 22°
2026-05-06 12:13 45.52103 -0.14365 33878 ft 451 kts 22°
2026-05-06 12:13 45.57813 -0.10739 33891 ft 450 kts 22°
2026-05-06 12:14 45.63516 -0.07109 33888 ft 451 kts 22°
2026-05-06 12:14 45.69211 -0.03477 33883 ft 451 kts 22°
2026-05-06 12:15 45.74933 0.00182 33900 ft 450 kts 22°
2026-05-06 12:15 45.80609 0.03821 33870 ft 450 kts 22°
2026-05-06 12:16 45.86304 0.07478 33883 ft 450 kts 22°
2026-05-06 12:16 45.91989 0.11138 33882 ft 450 kts 23°
2026-05-06 12:17 45.97678 0.14809 33892 ft 450 kts 23°
2026-05-06 12:17 46.03370 0.18492 33891 ft 451 kts 23°
2026-05-06 12:18 46.09069 0.22186 33889 ft 451 kts 23°
2026-05-06 12:18 46.14762 0.25884 33905 ft 450 kts 23°
2026-05-06 12:19 46.20469 0.29599 33903 ft 450 kts 23°
2026-05-06 12:19 46.26130 0.33297 33897 ft 450 kts 23°
2026-05-06 12:20 46.31811 0.37016 33909 ft 450 kts 23°
2026-05-06 12:20 46.37478 0.40734 33907 ft 449 kts 23°
2026-05-06 12:21 46.43153 0.44470 33896 ft 449 kts 23°
2026-05-06 12:21 46.48825 0.48210 33912 ft 450 kts 24°
2026-05-06 12:22 46.54575 0.51771 33922 ft 450 kts 19°
2026-05-06 12:22 46.60505 0.54456 33908 ft 448 kts 13°
2026-05-06 12:23 46.66614 0.56511 33903 ft 448 kts 12°
2026-05-06 12:23 46.72679 0.58484 33905 ft 449 kts 12°
2026-05-06 12:24 46.78757 0.60482 33921 ft 449 kts 12°
2026-05-06 12:24 46.84841 0.62499 33919 ft 448 kts 12°
2026-05-06 12:25 46.90886 0.64511 33918 ft 448 kts 12°
2026-05-06 12:25 46.96930 0.66545 33920 ft 448 kts 14°
2026-05-06 12:26 47.02891 0.69221 33927 ft 449 kts 20°
2026-05-06 12:26 47.08582 0.72822 33921 ft 449 kts 26°
2026-05-06 12:27 47.14007 0.77300 33918 ft 449 kts 31°
2026-05-06 12:27 47.19310 0.82063 33891 ft 449 kts 31°
2026-05-06 12:28 47.24614 0.86836 33922 ft 448 kts 31°
2026-05-06 12:28 47.29912 0.91596 33910 ft 449 kts 31°
2026-05-06 12:29 47.35217 0.96370 33912 ft 449 kts 31°
2026-05-06 12:29 47.40525 1.01159 33917 ft 449 kts 31°
2026-05-06 12:30 47.45822 1.05948 33899 ft 449 kts 31°
2026-05-06 12:30 47.51142 1.10681 33912 ft 448 kts 29°
2026-05-06 12:31 47.56620 1.15005 33892 ft 448 kts 27°
2026-05-06 12:31 47.62124 1.19279 33889 ft 449 kts 27°
2026-05-06 12:32 47.67628 1.23579 33898 ft 449 kts 28°
2026-05-06 12:32 47.73121 1.27891 33901 ft 448 kts 28°
2026-05-06 12:33 47.78615 1.32216 33905 ft 448 kts 28°
2026-05-06 12:33 47.84124 1.36564 33913 ft 449 kts 28°
2026-05-06 12:34 47.89608 1.40904 33905 ft 449 kts 28°
2026-05-06 12:34 47.95085 1.45250 33884 ft 449 kts 28°
2026-05-06 12:35 48.00595 1.49634 33903 ft 449 kts 28°
2026-05-06 12:35 48.06100 1.54030 33903 ft 449 kts 28°
2026-05-06 12:36 48.11578 1.58412 33901 ft 449 kts 28°
2026-05-06 12:36 48.17098 1.62822 33890 ft 450 kts 28°
2026-05-06 12:37 48.22625 1.67246 33890 ft 451 kts 29°
2026-05-06 12:37 48.28151 1.71692 33892 ft 450 kts 29°
2026-05-06 12:38 48.33665 1.76141 33899 ft 450 kts 29°
2026-05-06 12:38 48.39161 1.80588 33889 ft 450 kts 29°
2026-05-06 12:39 48.44669 1.85056 33901 ft 451 kts 29°
2026-05-06 12:39 48.50175 1.89533 33897 ft 451 kts 29°
2026-05-06 12:40 48.55685 1.94029 33902 ft 451 kts 29°
2026-05-06 12:40 48.61205 1.98548 33906 ft 452 kts 29°
2026-05-06 12:41 48.66700 2.03058 33895 ft 452 kts 30°
2026-05-06 12:41 48.71647 2.08627 33905 ft 451 kts 44°
2026-05-06 12:42 48.75491 2.15896 33895 ft 451 kts 58°
2026-05-06 12:42 48.77994 2.24337 33892 ft 451 kts 72°
2026-05-06 12:43 48.79653 2.33496 33892 ft 451 kts 75°
2026-05-06 12:43 48.81268 2.42760 33893 ft 451 kts 75°
2026-05-06 12:44 48.82898 2.51992 33878 ft 451 kts 75°
2026-05-06 12:44 48.84527 2.61210 33876 ft 452 kts 75°
2026-05-06 12:45 48.86162 2.70498 33870 ft 453 kts 75°
2026-05-06 12:46 48.88582 2.84262 33860 ft 454 kts 75°
2026-05-06 12:46 48.90187 2.93477 33860 ft 454 kts 76°
2026-05-06 12:47 48.91785 3.02715 33864 ft 455 kts 76°
2026-05-06 12:47 48.93369 3.11924 33848 ft 455 kts 76°
2026-05-06 12:48 48.94953 3.21184 33851 ft 455 kts 76°
2026-05-06 12:48 48.96528 3.30439 33845 ft 455 kts 76°
2026-05-06 12:49 48.98098 3.39727 33856 ft 456 kts 76°
2026-05-06 12:49 48.99665 3.49035 33861 ft 456 kts 76°
2026-05-06 12:50 49.01224 3.58352 33871 ft 458 kts 76°
2026-05-06 12:50 49.02788 3.67755 33856 ft 458 kts 77°
2026-05-06 12:51 49.04330 3.77071 33857 ft 459 kts 77°
2026-05-06 12:51 49.05877 3.86468 33860 ft 459 kts 77°
2026-05-06 12:52 49.07408 3.95825 33859 ft 459 kts 77°
2026-05-06 12:52 49.08931 4.05198 33864 ft 459 kts 77°
2026-05-06 12:53 49.10451 4.14599 33868 ft 459 kts 77°
2026-05-06 12:53 49.11964 4.24027 33870 ft 459 kts 77°
2026-05-06 12:54 49.13529 4.33411 33852 ft 460 kts 75°
2026-05-06 12:54 49.15635 4.42559 33856 ft 461 kts 69°
2026-05-06 12:55 49.18080 4.51561 33842 ft 462 kts 68°
2026-05-06 12:55 49.20527 4.60537 33834 ft 463 kts 68°
2026-05-06 12:56 49.22967 4.69563 33826 ft 463 kts 69°
2026-05-06 12:56 49.25389 4.78577 33835 ft 463 kts 69°
2026-05-06 12:57 49.27812 4.87637 33817 ft 464 kts 70°
2026-05-06 12:57 49.30219 4.96679 33818 ft 464 kts 69°
2026-05-06 12:58 49.32545 5.05450 33821 ft 466 kts 69°
2026-05-06 12:58 49.34838 5.14130 33820 ft 466 kts 69°
2026-05-06 12:59 49.37150 5.22910 33819 ft 467 kts 69°
2026-05-06 12:59 49.39481 5.31799 33822 ft 467 kts 69°
2026-05-06 13:00 49.41810 5.40720 33819 ft 467 kts 69°
2026-05-06 13:00 49.44154 5.49741 33812 ft 467 kts 70°
2026-05-06 13:01 49.46558 5.59032 33811 ft 468 kts 70°
2026-05-06 13:01 49.49012 5.67921 33811 ft 470 kts 65°
2026-05-06 13:02 49.52484 5.76226 33809 ft 474 kts 53°
2026-05-06 13:02 49.57209 5.83522 33808 ft 477 kts 40°
2026-05-06 13:03 49.62721 5.89405 33810 ft 477 kts 33°
2026-05-06 13:03 49.68334 5.94946 33809 ft 476 kts 33°
2026-05-06 13:04 49.73908 6.00543 33811 ft 476 kts 33°
2026-05-06 13:04 49.79513 6.06093 33808 ft 476 kts 30°
2026-05-06 13:05 49.85644 6.10344 33808 ft 477 kts 18°
2026-05-06 13:05 49.92134 6.12663 33809 ft 477 kts
2026-05-06 13:06 49.98859 6.13157 33807 ft 475 kts 359°
2026-05-06 13:06 50.05567 6.13110 33817 ft 476 kts 359°
2026-05-06 13:07 50.12255 6.13089 33807 ft 475 kts 359°
2026-05-06 13:07 50.18868 6.13115 33804 ft 474 kts 359°
2026-05-06 13:08 50.25524 6.13163 33800 ft 474 kts
2026-05-06 13:08 50.28803 6.13795 33759 ft 471 kts 12°
2026-05-06 13:08 50.31866 6.15324 33405 ft 465 kts 23°
2026-05-06 13:08 50.34683 6.17694 32553 ft 466 kts 33°
2026-05-06 13:09 50.37367 6.20482 31365 ft 472 kts 35°
2026-05-06 13:09 50.40051 6.23391 29960 ft 477 kts 35°
2026-05-06 13:09 50.42745 6.26289 28500 ft 480 kts 34°
2026-05-06 13:09 50.45507 6.29194 26989 ft 483 kts 33°
2026-05-06 13:10 50.48377 6.32168 25376 ft 485 kts 32°
2026-05-06 13:10 50.51341 6.34566 23527 ft 484 kts 17°
2026-05-06 13:10 50.54621 6.35395 21896 ft 473 kts
2026-05-06 13:10 50.57926 6.35537 20656 ft 457 kts 359°
2026-05-06 13:11 50.61105 6.35651 19503 ft 440 kts 359°
2026-05-06 13:11 50.64164 6.35831 18444 ft 426 kts
2026-05-06 13:11 50.67169 6.36087 17380 ft 412 kts
2026-05-06 13:11 50.70045 6.36351 16321 ft 401 kts
2026-05-06 13:12 50.72819 6.36619 15271 ft 391 kts
2026-05-06 13:12 50.75496 6.36881 14230 ft 382 kts
2026-05-06 13:12 50.78113 6.37138 13181 ft 375 kts
2026-05-06 13:12 50.80728 6.37386 11731 ft 377 kts
2026-05-06 13:13 50.83375 6.37611 10112 ft 380 kts
2026-05-06 13:13 50.86084 6.37831 8707 ft 374 kts
2026-05-06 13:13 50.88660 6.38027 7475 ft 364 kts
2026-05-06 13:13 50.91125 6.38202 6767 ft 346 kts
2026-05-06 13:14 50.93490 6.38675 6328 ft 330 kts 15°
2026-05-06 13:14 50.95639 6.39982 5993 ft 314 kts 21°
2026-05-06 13:14 50.97688 6.41320 5661 ft 300 kts 19°
2026-05-06 13:14 50.99652 6.42424 5395 ft 285 kts 18°
2026-05-06 13:15 51.01538 6.43444 5129 ft 273 kts 18°
2026-05-06 13:15 51.03381 6.44440 4854 ft 262 kts 18°
2026-05-06 13:15 51.05148 6.45395 4590 ft 254 kts 17°
2026-05-06 13:15 51.06912 6.46346 4315 ft 253 kts 18°
2026-05-06 13:16 51.08687 6.47301 4043 ft 252 kts 18°
2026-05-06 13:16 51.10434 6.48237 3776 ft 251 kts 18°
2026-05-06 13:16 51.12157 6.49155 3508 ft 249 kts 18°
2026-05-06 13:16 51.13811 6.50034 3247 ft 245 kts 18°
2026-05-06 13:17 51.15416 6.50890 3006 ft 236 kts 19°
2026-05-06 13:17 51.16799 6.52220 2959 ft 222 kts 40°
2026-05-06 13:17 51.17871 6.54039 2959 ft 210 kts 47°
2026-05-06 13:17 51.18839 6.55964 2971 ft 203 kts 49°
2026-05-06 13:18 51.19704 6.57785 2918 ft 189 kts 50°
2026-05-06 13:18 51.20519 6.59515 2638 ft 181 kts 49°
2026-05-06 13:18 51.21288 6.61147 2360 ft 167 kts 50°
2026-05-06 13:18 51.21988 6.62633 2111 ft 153 kts 49°
2026-05-06 13:19 51.22629 6.63988 1901 ft 144 kts 49°
2026-05-06 13:19 51.23267 6.65329 1749 ft 143 kts 50°
2026-05-06 13:19 51.23882 6.66625 1548 ft 143 kts 50°
2026-05-06 13:19 51.24516 6.67961 1341 ft 139 kts 50°
2026-05-06 13:20 51.25136 6.69269 1124 ft 135 kts 50°
2026-05-06 13:20 51.25729 6.70540 913 ft 134 kts 50°
2026-05-06 13:20 51.26309 6.71756 764 ft 135 kts 49°
2026-05-06 13:20 51.26911 6.72996 609 ft 136 kts 50°
2026-05-06 13:21 51.27508 6.74280 409 ft 138 kts 50°
2026-05-06 13:21 51.28114 6.75520 194 ft 135 kts 50°
2026-05-06 13:21 51.28655 6.76643 137 ft 100 kts 55°
2026-05-06 13:21 51.28975 6.77325 137 ft 42 kts 52°
2026-05-06 13:22 51.28990 6.77589 136 ft 14 kts 147°
2026-05-06 13:22 51.28929 6.77641 136 ft 9 kts 186°
2026-05-06 13:22 51.28874 6.77581 136 ft 12 kts 226°
2026-05-06 13:22 51.28806 6.77442 136 ft 22 kts 234°
2026-05-06 13:23 51.28680 6.77175 136 ft 31 kts 232°
2026-05-06 13:23 51.28545 6.76893 136 ft 30 kts 233°
2026-05-06 13:23 51.28419 6.76627 136 ft 28 kts 233°
2026-05-06 13:23 51.28301 6.76377 137 ft 26 kts 232°
2026-05-06 13:24 51.28189 6.76140 136 ft 25 kts 233°
2026-05-06 13:24 51.28082 6.75915 136 ft 24 kts 234°
2026-05-06 13:24 51.27980 6.75695 136 ft 23 kts 233°
2026-05-06 13:24 51.27878 6.75486 137 ft 22 kts 233°
2026-05-06 13:25 51.27748 6.75422 137 ft 21 kts 156°
2026-05-06 13:25 51.27715 6.75471 137 ft 2 kts 68°
2026-05-06 13:25 51.27722 6.75506 138 ft 6 kts 75°
2026-05-06 13:25 51.27732 6.75543 137 ft 0 kts 64°